Regional Weather Roundup
Issued by NWS

Home | Current Version | Previous Version | Graphics & Text | Print | Product List | Glossary On
Versions: 1 2 3 4 5 6 7 8 9 10 11 12 13 14 15 16 17 18 19 20 21 22 23 24 25 26 27 28 29 30 31 32 33 34 35 36 37 38 39 40 41 42 43 44 45 46 47 48 49 50
000
ASUS43 KLMK 042010
RWRKY
KENTUCKY REGIONAL WEATHER ROUNDUP
NATIONAL WEATHER SERVICE LOUISVILLE KY
400 PM EDT TUE AUG 04 2015

NOTE "FAIR" INDICATES FEW OR NO CLOUDS BELOW 12,000 FEET
WITH NO SIGNIFICANT WEATHER AND/OR OBSTRUCTIONS TO VISIBILITY.

KYZ001>023-026-027-061>063-070>075-042100-
WESTERN AND SOUTH CENTRAL KENTUCKY

CITY           SKY/WX    TMP DP  RH WIND       PRES   REMARKS
PADUCAH        MOSUNNY   94  72  48 W10G17    29.96F HX 102
HENDERSON      MOSUNNY   93  75  55 W6        29.94F HX 104
OWENSBORO      MOSUNNY   93  76  57 W10       29.96F HX 105
HOPKINSVILLE   MOSUNNY   92  72  52 W10       29.98F HX  99
BOWLING GREEN  MOSUNNY   94  70  45 SW10      29.98F HX 100
GLASGOW        PTSUNNY  N/A N/A N/A CALM      29.98F
$$

KYZ024-025-028>034-038-045-046-053-042100-
NORTH CENTRAL KENTUCKY

CITY           SKY/WX    TMP DP  RH WIND       PRES   REMARKS
LOUISVILLE/SDF CLOUDY    89  68  49 W12       29.97S HX  93
LOUISVILLE/LOU PTSUNNY   88  65  46 W12       29.98F HX  90
FORT KNOX      MOSUNNY   83  72  68 NW6       29.98S
$$

KYZ035>037-039>044-047>052-055>060-089>105-042100-
NORTHEAST KENTUCKY

CITY           SKY/WX    TMP DP  RH WIND       PRES   REMARKS
LEXINGTON      PTSUNNY   86  68  54 W10       30.00F
COVINGTON      PTSUNNY   81  60  48 W9        29.99S
FRANKFORT      PTSUNNY   85  67  54 VRB6      29.98F
$$

KYZ054-064>069-076>088-106>120-042100-
SOUTHEAST KENTUCKY

CITY           SKY/WX    TMP DP  RH WIND       PRES   REMARKS
JACKSON        RAIN      74  67  78 CALM      30.04R
LONDON         MOSUNNY   91  67  44 W14       30.01S HX  94
SOMERSET       PTSUNNY   86  68  54 W10       30.01S
MIDDLESBORO    PTSUNNY   91  71  51 W9        30.00F HX  97
MONTICELLO     PTCLDY    89  75  63 W6        30.03F HX  98
$$



USA.gov is the U.S. government's official web portal to all federal, state and local government web resources and services.